Regional Weather Roundup
Issued by NWS

Home | Current Version | Previous Version | Text Only | Print | Product List | Glossary Off
Versions: 1 2 3 4 5 6 7 8 9 10 11 12 13 14 15 16 17 18 19 20 21 22 23 24 25 26 27 28 29 30 31 32 33 34 35 36 37 38 39 40 41 42 43 44 45 46 47 48 49 50

000
ASUS45 KCYS 271910
RWRWY

WYOMING REGIONAL WEATHER ROUNDUP
NATIONAL WEATHER SERVICE CHEYENNE WY
100 PM MDT WED MAY 27 2015

NOTE:  "FAIR" INDICATES FEW OR NO CLOUDS BELOW 12,000 FEET
WITH NO SIGNIFICANT WEATHER AND/OR OBSTRUCTIONS TO VISIBILITY.

WYZ001-272000-
YELLOWSTONE NATIONAL PARK

CITY           SKY/WX    TMP DP  RH WIND       PRES   REMARKS
LK YELLOWSTONE NOT AVBL
W YELLOWSTONE  NOT AVBL

$$
WYZ002>013-054>058-071-098>099-272000-
NORTHERN WYOMING

CITY           SKY/WX    TMP DP  RH WIND       PRES   REMARKS
JACKSON        PTSUNNY   52  45  76 CALM      30.11F
CODY           PTSUNNY   63  48  59 N8        30.00F
GREYBULL       FAIR      69  47  45 S8        29.96F
WORLAND        FAIR      67  48  50 VRB5      29.99F
SHERIDAN       LGT RAIN  63  49  60 W8        29.98F
BUFFALO        PTSUNNY   63  49  60 N10       30.02S
GILLETTE       PTSUNNY   67  49  52 S13       29.96F
HULETT         MOCLDY    70  48  46 SW8       29.98F
NEWCASTLE      FAIR      66  48  52 MISG      30.00F

$$
WYZ014>020-022>026-101>103-272000-
CENTRAL WYOMING

CITY           SKY/WX    TMP DP  RH WIND       PRES   REMARKS
BIG PINEY      FAIR      56  36  47 S6        30.13F
PINEDALE       MOCLDY    54  36  50 S6        30.13F
DUBOIS         FAIR      55  32  41 NW13      30.08F
LANDER         PTSUNNY   63  44  50 S8        30.02F
RIVERTON       FAIR      66  39  37 S7        30.03F
CASPER         PTSUNNY   65  43  44 SW14      30.03S
DOUGLAS        LGT RAIN  66  48  52 NE7       30.02F

$$
WYZ021-027>030-104>119-272000-
SOUTHERN WYOMING

CITY           SKY/WX    TMP DP  RH WIND       PRES   REMARKS
EVANSTON       PTSUNNY   55  44  66 W17       30.14F
KEMMERER       CLOUDY    54  41  62 W13       30.15S
FORT BRIDGER   TSTM      54  48  82 S16       30.17S
ROCK SPRINGS   FAIR      59  39  47 S5        30.13F
RAWLINS        FAIR      60  40  47 SW18      30.14F
SARATOGA       MOCLDY    59  37  44 SW16      30.16F
LARAMIE        FAIR      62  38  40 W14G22    30.13F
CHEYENNE       PTSUNNY   64  41  42 S7        30.10F
TORRINGTON     FAIR      71  49  45 SW15      29.99F
PINE BLUFFS    MOCLDY    61  45  55 NW15G23   30.07F

$$



USA.gov is the U.S. government's official web portal to all federal, state and local government web resources and services.